This demonstration page uses our WeatherBlox Daily Observations layout. Learn more.

Left ArrowRight Arrow

39.12711, -84.51439

Hourly Observations for September 14, 2016

Temp ( °F °C ) Dew Point ( °F °C ) Humidity (%) Winds ( mph kmh ) Pressure ( in mb ) Visibility ( mi km ) Precip ( " mm )
12:53 am 00:53 Clear with Mist and Fog 59 15 59 15 100 100 Calm 30.14 1021 5 8 0.00 0.00
1:37 am 01:37 Clear with Mist and Fog 60 15.6 60 15.6 100 100 Calm 30.15 1021 3 4 0.00 0.00
1:46 am 01:46 Clear with Mist and Fog 61 16 61 16 100 100 Calm 30.12 1020 1 2 0.00 0.00
1:53 am 01:53 Clear with Mist and Fog 58 14.4 58 14.4 100 100 Calm 30.14 1021 1 2 0.00 0.00
1:57 am 01:57 Clear with Mist and Fog 59 15 59 15 100 100 Calm 30.15 1021 4 6 0.00 0.00
2:53 am 02:53 Clear 60 15.6 60 15.6 100 100 Calm 30.14 1021 8 13 0.00 0.00
3:36 am 03:36 Clear with Mist and Fog 57 14 57 14 100 100 Calm 30.15 1021 2 3 0.00 0.00
3:46 am 03:46 Clear with Mist and Fog 59 15 59 15 100 100 Calm 30.15 1021 1 1 0.00 0.00
3:50 am 03:50 Clear with Mist and Fog 57 14 57 14 100 100 NNE 3 6 30.15 1021 3 4 0.00 0.00
3:53 am 03:53 Clear with Mist and Fog 57 13.9 57 13.9 100 100 NNE 3 6 30.14 1021 6 10 0.00 0.00
4:26 am 04:26 Mostly Clear with Mist and Fog 57 14 57 14 100 100 Calm 30.15 1021 2 3 0.00 0.00
4:28 am 04:28 Mostly Cloudy with Mist and Fog 57 14 57 14 100 100 Calm 30.15 1021 1 2 0.00 0.00
4:35 am 04:35 Mostly Cloudy with Fog 56 13.3 56 13.3 100 100 Calm 30.15 1021 1 1 0.00 0.00
4:49 am 04:49 Cloudy with Mist and Fog 57 14 57 14 100 100 Calm 30.15 1021 2 3 0.00 0.00
4:53 am 04:53 Cloudy with Mist and Fog 59 15 59 15 100 100 Calm 30.14 1021 5 8 0.00 0.00
5:11 am 05:11 Cloudy with Mist and Fog 59 15 59 15 100 100 Calm 30.15 1021 4 6 0.00 0.00
5:13 am 05:13 Cloudy with Mist and Fog 59 15 59 15 100 100 Calm 30.15 1021 2 2 0.00 0.00
5:18 am 05:18 Cloudy with Fog 59 15 59 15 100 100 Calm 30.15 1021 0 0 0.00 0.00
5:53 am 05:53 Mostly Cloudy with Fog 59 15 59 15 100 100 Calm 30.15 1021 0 0 0.00 0.00
6:53 am 06:53 Cloudy with Fog 58 14.4 58 14.4 100 100 Calm 30.17 1022 1 1 0.00 0.00
7:30 am 07:30 Cloudy with Mist and Fog 57 14 57 14 100 100 Calm 30.18 1022 2 3 0.00 0.00
7:51 am 07:51 Partly Cloudy with Mist and Fog 59 15 59 15 100 100 Calm 30.18 1022 3 5 0.00 0.00
7:53 am 07:53 Partly Cloudy with Mist and Fog 59 15 59 15 100 100 Calm 30.19 1022 3 5 0.00 0.00
8:53 am 08:53 Sunny with Mist and Fog 63 17.2 63 17.2 100 100 Calm 30.19 1022 6 10 0.00 0.00
9:53 am 09:53 Sunny 68 20 64 17.8 87 87 S 3 6 30.19 1023 10 16 0.00 0.00
10:53 am 10:53 Sunny 74 23.3 65 18.3 74 74 Calm 30.20 1023 10 16 0.00 0.00
11:53 am 11:53 Sunny 79 26.1 67 19.4 67 67 SSE 3 6 30.19 1022 10 16 0.00 0.00
12:53 pm 12:53 Sunny 82 27.8 69 20.6 65 65 SSE 5 7 30.17 1022 10 16 0.00 0.00
1:53 pm 13:53 Partly Cloudy 84 28.9 69 20.6 61 61 WSW 6 9 30.15 1021 10 16 0.00 0.00
2:53 pm 14:53 Partly Cloudy 84 28.9 69 20.6 61 61 SSW 6 9 30.13 1020 10 16 0.00 0.00
3:46 pm 15:46 Mostly Cloudy 79 26 70 21 74 74 NE 12 19 30.12 1020 10 16 0.00 0.00
3:53 pm 15:53 Mostly Cloudy 78 25.6 70 21.1 76 76 NNE 12 19 30.12 1020 10 16 0.00 0.00
4:53 pm 16:53 Partly Cloudy 77 25 71 21.7 82 82 Calm 30.12 1020 10 16 0.03 0.76
5:53 pm 17:53 Mostly Cloudy with Light Rain 78 25.6 72 22.2 82 82 NNW 3 6 30.12 1020 7 11 0.01 0.25
6:53 pm 18:53 Partly Cloudy 76 24.4 71 21.7 85 85 NE 7 11 30.12 1020 10 16 0.00 0.03
7:53 pm 19:53 Clear 70 21.1 70 21.1 100 100 SE 3 6 30.12 1020 10 16 0.00 0.00
8:53 pm 20:53 Clear 69 20.6 69 20.6 100 100 NE 3 6 30.14 1021 9 14 0.00 0.00
9:53 pm 21:53 Clear 70 21.1 69 20.6 97 97 NE 7 11 30.16 1022 10 16 0.00 0.00
10:53 pm 22:53 Clear 70 21.1 67 19.4 90 90 NE 12 19 30.17 1022 10 16 0.00 0.00
11:53 pm 23:53 Clear 68 20 66 18.9 93 93 NNE 7 11 30.19 1022 10 16 0.00 0.00

Powered by AerisWeather